This is the latest recevied weather packets stored in our database for station/object OE5HCE. If no packets are shown the sender has not sent any weather packets the latest 10 day(s).
| Time | Temp. | Humidity | Pressure | Rain* | Wind** | Luminosity | Snow |
|---|---|---|---|---|---|---|---|
| 1787624101 | 16.11° C | 69% | 1011.3 hPa | 0 mm | - | 0 W/m² | - |
| 1787623260 | 16.11° C | 69% | 1011.5 hPa | 0 mm | - | 0 W/m² | - |
| 1787622361 | 16.67° C | 68% | 1011.7 hPa | 0 mm | - | 0 W/m² | - |
| 1787621455 | 16.67° C | 67% | 1011.7 hPa | 0 mm | - | 0 W/m² | - |
| 1787620553 | 17.22° C | 67% | 1011.7 hPa | 0 mm | - | 0 W/m² | - |
| 1787619653 | 17.22° C | 67% | 1011.6 hPa | 0 mm | - | 0 W/m² | - |
| 1787618751 | 17.22° C | 67% | 1011.8 hPa | 0 mm | - | 0 W/m² | - |
| 1787617850 | 17.22° C | 67% | 1012.1 hPa | 0 mm | - | 0 W/m² | - |
| 1787616972 | 17.22° C | 67% | 1012.7 hPa | 0 mm | - | 0 W/m² | - |
| 1787616047 | 17.78° C | 67% | 1012.3 hPa | 0 mm | - | 0 W/m² | - |
| 1787615144 | 17.78° C | 67% | 1012.6 hPa | 0 mm | - | 0 W/m² | - |
| 1787614250 | 17.78° C | 66% | 1012.9 hPa | 0 mm | - | 0 W/m² | - |
| 1787613338 | 18.33° C | 66% | 1013.3 hPa | 0 mm | - | 0 W/m² | - |
| 1787612435 | 17.78° C | 66% | 1013.5 hPa | 0 mm | - | 0 W/m² | - |
| 1787611564 | 18.33° C | 65% | 1013.7 hPa | 0 mm | - | 0 W/m² | - |
| 1787610630 | 18.33° C | 64% | 1014.1 hPa | 0 mm | - | 0 W/m² | - |
| 1787609738 | 18.33° C | 63% | 1014.3 hPa | 0 mm | - | 0 W/m² | - |
| 1787608834 | 18.33° C | 63% | 1014.5 hPa | 0 mm | - | 0 W/m² | - |
| 1787607925 | 18.89° C | 62% | 1014.6 hPa | 0 mm | - | 0 W/m² | - |
| 1787607022 | 18.89° C | 61% | 1014.8 hPa | 0 mm | - | 0 W/m² | - |
| 1787606119 | 19.44° C | 61% | 1015.1 hPa | 0 mm | - | 0 W/m² | - |
| 1787605218 | 19.44° C | 60% | 1015.2 hPa | 0 mm | - | 0 W/m² | - |
| 1787604318 | 20° C | 59% | 1015.2 hPa | 0 mm | - | 0 W/m² | - |
| 1787603415 | 20° C | 59% | 1015.5 hPa | 0 mm | - | 0 W/m² | - |
| 1787602528 | 20° C | 59% | 1015.6 hPa | 0 mm | - | 0 W/m² | - |
* Rain latest hour (hover to see other rain measurements)
** Current wind speed in m/s (hover to see current wind gust speed)